MUOS-2 (39206 NORAD) Tracking and Keplerian Element Data

This shows tracking and keplerian element data for the satellite.

Feedback or suggestion? Click here.




ElementValue
Catalog39206
NameMUOS-2
Epoch Orbit4219
Epoch Day34.71988991
Epoch Year2025
RAAN43.1947
Inclination4.0322
Eccentricity0.0052924
Argument of Perigee183.8758
Mean Anonmoly349.1765
Mean Motion1.00273432
Decay Rate6.8E-07
L11 39206U 13036A 25034.71988991 .00000068 00000+0 00000+0 0 9991
L22 39206 4.0322 43.1947 0052924 183.8758 349.1765 1.00273432 42196



Live tracking and technical data element details for MUOS-2 (NORAD 39206). MUOS-2 can be tracked NOW for your location showing map with azimuth and elevation plus other details from your city location.







IsCatalogInMostPopularTable: catalog: 39206, numindb: 327
Update: records affected: 1



GetName: 39206 MUOS-2

Hit Count: updated at: Sat, 17 May 2025 09:27:02 GMT